Temp
18 19 19 19 19 18 18 18 17 17 16 16 16 16 16 15 15 16 15 14 13 13 13 12 12 11 11 10 10 10 10 10 9 9 9 8 8 8 7 7 7 7 7
18 19 18 19 18 18 18 18 17 17 17 16 15 15 15 15 15 14 16 13 13 13 12 13 12 11 11 10 10 10 9 9 9 9 9 8 8 8 8 7 7 7 7
18 19 18 18 18 18 17 17 17 17 17 17 16 15 15 15 15 14 14 15 13 13 12 12 11 11 10 10 10 9 9 9 9 9 9 8 8 8 8 7 7 7 7
18 17 18 18 17 17 17 17 17 17 17 17 16 16 15 15 14 14 14 13 14 14 12 11 10 10 10 10 10 9 10 9 9 9 9 9 8 8 8 7 7 7 6
17 17 18 17 16 17 17 17 17 17 17 17 16 16 15 15 14 14 13 13 12 12 13 11 10 10 9 9 8 8 9 9 9 9 8 8 8 8 7 7 7 7 6
16 16 18 17 16 17 16 16 16 16 17 16 16 16 15 14 14 13 13 13 12 11 11 11 11 10 10 10 9 8 8 8 8 8 7 7 7 7 6 6 6 6 6
16 16 18 16 16 17 16 15 15 15 15 15 15 16 16 14 12 13 13 13 12 11 11 10 10 11 9 9 9 7 7 7 7 6 6 6 6 6 6 6 6 6 6
17 16 17 16 15 16 16 14 15 15 16 14 15 15 16 15 13 12 13 12 11 11 11 11 10 10 9 9 8 7 6 6 5 5 5 5 5 5 5 5 5 5 5
17 16 16 16 16 16 15 14 14 15 15 14 13 13 13 15 16 15 12 12 12 11 10 10 10 9 9 8 8 7 5 5 4 4 3 3 3 4 4 4 4 4 5
16 16 16 15 15 15 15 14 14 14 14 15 12 11 11 12 14 15 14 12 11 10 10 10 9 9 8 8 7 7 5 4 4 3 2 2 2 2 3 3 3 3 4
15 15 15 14 14 14 14 14 14 13 13 11 12 12 12 12 12 12 13 14 13 12 11 10 9 8 8 8 7 5 4 3 2 2 2 1 1 1 2 2 2 2 2
15 15 15 13 13 13 13 13 12 11 10 9 9 11 13 13 13 13 13 13 13 12 11 10 9 8 8 7 7 5 4 3 2 1 1 -0 -0 0 0 1 1 1 1
15 14 13 12 12 12 12 12 11 10 9 9 9 11 12 11 11 11 11 11 11 11 11 10 10 9 8 7 6 5 3 2 2 1 -0 -1 -1 -1 -1 -1 -0 -0 0
13 13 12 11 11 11 11 10 10 9 9 8 9 10 10 10 10 10 10 10 10 10 10 10 10 9 8 7 6 5 3 3 2 1 -0 -0 -1 -2 -2 -2 -2 -1 -1
13 11 11 10 10 10 10 8 8 8 8 8 8 8 8 8 8 9 9 9 8 8 9 9 9 8 8 7 6 5 4 3 2 1 1 -0 -2 -2 -3 -3 -2 -2 -2
12 10 10 10 10 9 8 7 7 7 7 8 7 6 6 8 8 8 8 8 8 8 8 8 8 7 7 7 6 4 3 3 2 1 1 -0 -2 -2 -3 -3 -3 -3 -3
10 10 9 9 9 8 6 6 7 7 7 6 6 5 6 7 8 8 8 8 7 7 8 8 8 7 7 6 6 4 3 3 2 2 1 0 -1 -2 -3 -4 -4 -4 -4
10 10 9 8 8 7 6 7 7 6 6 5 5 4 5 7 7 7 7 7 7 7 7 7 7 7 6 6 5 4 3 3 2 2 1 0 -0 -1 -2 -3 -3 -4 -4
9 8 8 8 8 7 6 6 6 5 4 5 4 4 5 6 7 6 7 7 7 7 7 7 6 6 6 5 5 4 3 3 2 2 2 1 0 -1 -1 -1 -2 -2 -3
7 7 8 7 7 7 6 5 5 4 5 4 3 4 5 6 6 6 7 7 7 7 6 6 6 6 6 5 5 4 3 3 3 2 2 1 1 0 -0 -0 -1 -1 -2
7 7 7 6 6 6 5 5 5 5 4 3 3 3 5 5 6 6 6 6 7 6 6 6 6 6 5 5 5 4 3 3 2 1 1 1 1 0 0 0 0 0 -1
7 6 6 6 5 4 5 4 5 4 3 2 2 4 6 6 6 6 5 5 4 4 5 5 5 5 5 5 4 3 3 2 2 1 1 1 0 0 0 1 1 -0 -1
6 4 4 4 5 6 5 4 4 3 2 2 4 5 5 6 6 6 6 5 4 4 3 3 3 4 4 3 3 2 2 1 1 1 -0 0 0 0 0 0 -0 -1 -1
5 5 6 6 5 4 4 4 3 2 3 4 4 5 5 5 5 5 5 5 4 3 2 2 1 1 2 2 2 1 1 -0 -1 -1 -0 0 0 0 -0 -1 -1 -1 -1
6 5 5 4 4 4 4 3 2 3 3 3 4 4 4 4 4 4 3 3 3 4 3 3 2 1 0 1 0 -0 -1 -1 -1 -1 -0 0 -0 -0 -1 -1 -1 -1 -2
5 5 5 6 6 5 5 3 2 2 2 2 2 3 3 3 3 3 2 2 1 2 2 2 1 -0 -0 -1 -2 -2 -2 -2 -1 -1 -0 -0 -1 -1 -1 -1 -1 -2 -2
Height
858 859 860 862 863 865 867 867 868 869 871 872 873 873 872 871 872 872 871 870 870 871 872 873 873 873 874 875 876 877 877 878 878 878 878 878 877 876 875 874 873 872 870
858 858 860 861 862 864 864 866 868 869 870 872 872 872 871 871 873 872 871 869 869 869 870 871 872 872 874 875 876 876 876 877 877 877 877 877 876 875 875 874 873 872 871
857 857 859 860 862 864 864 865 869 869 870 870 871 871 872 871 872 872 870 869 867 867 868 869 870 872 873 874 874 875 875 876 876 876 875 875 875 874 873 872 872 871 870
855 856 858 859 861 862 863 865 867 867 869 869 870 870 870 870 871 871 869 869 868 867 867 868 870 870 871 872 873 874 874 874 874 874 874 873 873 872 871 871 870 869 869
852 853 856 857 859 861 861 863 865 866 867 868 868 868 869 868 869 868 868 868 868 868 868 867 869 870 869 870 871 871 872 872 872 872 872 871 870 870 869 869 868 867 867
849 851 854 855 857 859 860 862 862 864 865 866 866 866 865 866 866 866 866 867 867 867 868 867 867 866 866 867 867 868 869 869 869 869 869 868 868 867 867 866 865 864 864
846 850 851 854 855 856 858 859 861 861 863 865 865 862 859 860 863 864 865 865 865 865 866 866 866 866 864 864 864 863 865 866 866 866 866 866 865 865 864 863 862 861 860
844 846 848 849 852 853 855 856 857 858 860 863 862 860 856 859 858 859 861 861 862 863 863 863 864 864 864 864 862 860 861 862 863 863 863 862 862 862 861 860 858 857 856
840 841 843 846 848 850 852 853 854 855 856 859 860 861 858 853 853 851 854 857 858 859 860 860 860 861 861 861 861 859 857 858 859 859 859 859 859 858 857 856 854 853 851
835 838 840 842 844 847 848 850 851 852 853 854 857 858 858 857 854 849 849 851 853 855 855 856 857 858 858 857 857 856 853 853 854 855 856 856 855 854 853 852 850 848 846
832 834 836 839 841 844 845 847 848 850 852 854 856 857 854 854 855 856 850 847 847 848 849 851 853 855 855 855 854 849 849 850 851 852 852 852 851 849 848 846 845 843 841
828 830 832 833 835 838 841 843 846 848 848 851 853 855 853 852 851 850 848 846 845 845 846 847 849 850 850 850 850 847 846 847 847 848 848 847 846 844 842 840 838 836 835
823 826 828 828 830 833 838 840 842 844 846 847 850 852 852 851 853 851 850 849 845 843 843 844 844 844 844 845 846 845 843 843 843 843 842 841 840 838 836 834 832 830 828
816 823 826 823 826 831 834 837 838 841 843 845 849 848 851 850 850 850 849 849 844 841 840 840 839 838 839 840 841 840 841 841 839 838 837 836 834 832 830 828 826 824 822
813 816 820 820 824 828 832 834 837 838 841 844 846 848 851 850 849 848 848 847 844 841 838 836 835 835 835 836 836 836 836 836 835 834 832 830 828 827 824 822 820 817 815
808 812 815 817 820 825 829 831 834 836 839 842 843 847 848 847 845 845 844 843 841 839 835 835 833 833 832 831 831 830 831 831 829 827 825 823 822 820 819 815 813 810 808
806 810 813 816 819 822 826 830 832 834 835 837 841 842 843 842 841 841 840 839 837 836 832 829 828 827 826 826 826 826 826 825 824 822 820 817 815 813 811 808 806 803 801
803 806 808 811 815 818 823 827 829 832 832 838 837 837 838 837 837 836 835 834 832 831 829 825 824 823 822 822 821 821 821 820 818 816 814 811 808 806 803 801 798 795 793
800 803 806 810 811 815 820 824 826 827 831 833 836 834 834 833 831 830 830 828 825 824 823 821 818 818 817 816 815 815 815 813 813 809 807 803 801 799 796 793 791 788 786
798 802 805 807 810 815 818 821 824 826 828 830 830 830 828 827 825 824 822 820 818 817 816 814 813 812 811 809 809 809 807 806 805 804 802 799 796 793 789 786 783 781 779
799 801 804 808 811 812 816 819 821 825 825 825 825 824 822 820 818 817 816 813 812 811 809 807 805 805 803 803 802 802 801 801 800 800 797 793 791 788 784 781 777 773 774
798 801 804 807 810 813 816 818 820 821 821 821 819 818 815 813 811 809 807 807 807 806 803 801 799 798 796 797 797 798 798 797 795 796 791 788 787 782 779 775 772 770 768
800 803 805 808 810 813 814 816 817 817 816 815 814 812 810 807 805 803 800 797 796 796 796 796 795 793 792 792 793 793 793 793 791 789 789 783 781 776 773 770 767 765 763
800 801 804 806 808 810 811 812 812 812 812 810 808 806 804 801 800 798 794 791 788 786 786 787 787 786 788 788 787 788 788 788 787 785 783 777 775 771 769 766 763 760 756
798 800 802 804 805 807 807 808 809 809 807 805 803 800 798 796 793 792 789 786 781 778 778 777 777 779 780 781 782 783 784 785 781 778 776 773 770 767 765 761 758 755 752
798 799 801 802 803 805 805 805 806 806 804 801 798 795 793 790 788 785 782 779 776 772 771 770 770 770 771 774 775 776 779 779 777 773 771 769 767 766 759 757 754 752 748
Wind_Speed
13 13 11 13 12 10 11 8 7 6 5 4 2 2 4 6 5 2 1 5 2 5 6 4 8 8 7 7 6 5 3 3 3 3 6 5 4 7 9 10 12 14 14
12 11 11 10 10 11 10 8 8 7 6 5 2 3 3 2 1 2 1 1 5 3 4 7 9 9 8 6 5 4 2 2 1 2 7 5 4 6 9 9 11 12 13
14 12 12 11 11 10 10 8 8 7 6 4 2 1 1 0 1 2 2 2 0 2 1 4 5 8 7 7 5 4 4 4 3 7 8 7 8 9 11 9 10 11 12
13 12 11 11 11 11 10 10 10 8 7 5 3 2 1 2 3 3 2 2 2 1 0 5 7 8 8 5 6 6 7 7 9 11 11 11 13 13 11 11 11 13 14
14 13 12 11 12 11 10 10 8 8 7 5 4 3 3 5 4 4 4 3 3 3 2 1 6 10 10 8 5 5 7 9 11 12 13 13 12 12 13 13 14 15 16
12 13 12 12 13 11 10 10 10 8 6 4 5 6 7 6 6 7 7 6 5 5 5 6 7 10 11 12 15 16 10 10 11 12 12 12 13 13 14 16 17 18 18
14 15 14 14 14 13 13 12 11 9 7 5 6 9 9 10 9 9 9 9 7 7 6 7 9 9 6 6 11 9 7 8 9 11 12 13 14 15 17 19 20 21 20
17 17 16 15 16 15 15 15 14 11 8 7 5 6 4 5 13 13 12 11 9 9 9 10 9 10 11 12 3 6 9 13 10 10 12 14 15 17 18 19 19 21 22
19 19 18 17 16 16 17 16 15 14 12 9 7 2 3 5 13 11 14 12 10 10 10 11 11 11 12 12 13 11 9 8 10 10 11 13 15 17 20 22 23 25 26
18 20 18 17 17 17 17 17 15 13 11 9 5 8 11 10 4 5 10 13 12 12 11 10 11 11 12 13 12 15 16 14 15 13 11 14 18 20 22 25 27 29 31
20 19 18 19 18 18 16 15 13 12 10 6 9 10 9 10 12 11 9 10 12 11 11 10 10 11 13 12 12 12 9 10 12 16 18 17 19 21 24 26 27 29 30
18 20 22 21 21 20 17 15 14 13 10 7 9 11 11 10 12 13 10 14 13 15 15 10 12 12 12 12 12 15 17 18 19 20 22 20 21 23 25 26 27 27 29
19 21 23 22 22 22 17 15 16 16 11 9 7 10 10 11 13 13 14 15 13 15 14 15 15 15 12 13 14 11 12 15 21 20 19 21 23 25 25 25 26 27 28
23 20 24 27 25 21 20 18 19 15 10 6 9 7 11 11 12 14 14 15 9 14 17 17 16 13 13 13 13 18 17 20 17 18 23 28 27 24 24 25 26 26 27
21 24 30 28 25 23 21 16 16 12 9 8 7 7 11 14 15 15 15 15 13 9 10 17 16 14 15 15 16 17 18 21 23 28 33 28 24 24 24 25 26 27 27
22 25 29 29 27 21 19 17 13 11 9 8 3 8 14 17 15 16 16 16 16 17 10 18 18 18 18 19 17 12 18 23 26 26 25 25 21 22 25 27 28 27 27
21 21 20 22 22 20 17 15 13 13 13 5 6 13 16 18 19 17 16 17 18 18 17 20 19 19 19 18 20 21 19 22 25 25 23 24 26 28 28 26 27 27 24
20 20 22 24 19 19 19 16 13 12 10 4 12 14 20 20 20 19 17 19 20 19 20 21 22 21 21 20 21 20 21 24 24 26 26 26 30 26 25 25 24 24 24
17 17 18 19 21 16 17 15 14 15 11 18 15 17 20 22 22 21 22 22 21 22 21 21 22 22 22 21 22 21 22 21 25 25 24 23 24 21 26 28 26 25 23
11 13 16 18 17 20 16 17 15 16 19 14 17 20 22 23 24 26 26 25 23 24 23 22 22 22 22 21 19 21 22 22 21 24 23 24 24 24 23 25 26 25 24
11 13 14 14 16 17 21 20 17 16 13 14 21 22 23 24 25 27 28 26 24 24 22 22 20 22 20 20 19 20 20 22 23 22 24 22 21 22 22 22 23 23 18
11 14 13 15 17 13 14 15 14 9 17 18 24 22 23 24 26 29 32 34 37 29 28 25 22 21 22 21 20 19 19 20 18 21 21 23 22 23 22 21 21 20 21
11 10 9 9 8 7 9 12 16 18 20 23 21 22 24 25 26 26 27 30 30 33 38 32 28 28 25 23 21 21 20 21 22 22 21 23 21 22 22 21 20 22 25
9 7 5 3 4 6 9 13 15 16 17 19 21 24 25 26 26 27 27 28 29 28 29 30 30 32 30 27 22 20 18 20 22 23 21 20 21 21 20 21 24 26 24
7 5 5 4 7 10 11 9 10 13 17 21 23 24 26 28 28 29 28 27 31 33 30 31 32 30 27 28 21 15 16 18 18 22 19 19 21 19 20 22 21 18 17
4 3 2 3 4 8 9 9 9 14 19 22 23 26 28 29 31 32 30 26 27 31 30 29 23 24 28 30 31 26 22 20 19 18 18 16 19 20 18 21 13 25 23
Wind_Direction
184 181 175 174 178 173 173 168 159 148 142 127 138 63 31 24 20 13 303 338 297 242 222 218 194 175 166 158 150 151 109 72 99 31 3 359 8 18 13 8 10 8 4
187 184 179 181 179 179 173 173 171 171 173 173 123 45 41 35 5 352 333 290 9 327 232 220 204 190 185 182 177 175 163 152 149 329 326 320 316 336 344 342 354 355 354
193 190 187 184 185 183 176 173 183 184 184 186 188 131 223 298 304 317 312 314 24 12 223 204 180 191 200 209 206 212 234 232 264 311 313 304 297 299 320 317 329 337 338
197 192 193 193 187 182 181 187 193 191 199 209 208 215 249 303 288 285 292 295 289 280 202 200 199 196 198 191 222 244 261 278 292 301 304 304 305 312 312 309 311 321 324
201 196 205 198 191 192 194 198 197 203 197 219 232 244 262 283 269 270 255 249 288 307 307 167 249 261 252 242 254 278 278 283 291 294 299 303 309 312 314 311 309 311 309
200 198 206 200 194 202 202 204 197 199 215 229 252 250 253 268 258 257 246 246 261 263 278 286 276 257 241 263 271 275 279 281 284 291 294 297 300 302 302 301 300 299 297
206 208 210 205 204 209 209 197 194 191 200 216 255 251 266 226 237 248 237 247 258 246 266 278 280 276 233 263 279 249 255 266 285 292 295 299 300 301 302 301 299 296 295
213 211 212 209 209 209 204 198 196 197 211 211 265 291 305 260 221 225 230 241 248 253 263 273 264 268 268 280 276 273 258 264 277 293 298 298 297 297 298 300 300 298 297
217 214 213 213 210 210 206 201 202 205 210 208 224 288 294 273 330 221 210 231 238 244 255 276 269 263 265 269 276 289 256 260 276 291 302 302 300 298 296 296 295 294 292
218 217 215 214 208 210 210 205 208 212 223 214 213 242 243 269 287 296 216 215 226 233 255 263 271 276 271 268 270 274 273 278 288 287 300 300 298 296 294 292 292 291 291
219 216 212 208 209 212 212 209 209 208 206 209 241 261 241 248 251 267 288 284 222 243 256 257 268 277 276 274 279 261 265 277 288 294 297 300 299 298 295 293 291 290 288
218 214 210 206 205 207 209 209 206 206 206 233 245 259 273 273 283 273 267 270 275 281 279 268 258 259 275 279 278 271 278 284 296 302 299 299 300 298 295 293 292 291 289
216 218 209 206 204 200 209 203 198 210 226 242 227 264 269 275 282 283 287 283 281 281 280 272 263 264 260 277 282 265 271 287 304 298 294 299 300 297 294 293 292 291 289
212 220 216 208 205 201 202 200 207 217 226 207 248 246 277 281 276 270 271 280 283 280 278 275 276 269 270 270 273 285 281 287 292 292 292 298 297 295 294 294 292 291 289
217 217 217 212 204 204 201 196 210 209 191 203 224 255 276 274 269 266 269 273 279 284 279 285 291 289 284 274 270 268 275 282 284 286 291 292 291 292 294 294 292 290 288
215 217 217 212 205 198 199 206 193 190 179 204 195 286 271 265 268 267 265 265 268 275 283 282 286 290 279 279 275 275 283 285 284 286 289 289 280 286 292 291 291 291 288
213 207 207 201 196 194 199 197 196 184 175 177 260 285 263 258 264 265 265 268 270 270 276 282 283 283 283 282 282 276 277 282 285 285 288 287 289 292 296 290 291 289 288
206 206 201 191 198 192 192 196 180 182 166 243 273 272 263 267 265 262 262 266 268 274 278 282 284 287 287 287 285 283 282 281 284 286 288 285 290 291 294 290 289 286 282
199 196 203 198 193 191 188 187 191 186 206 230 279 280 272 267 268 264 263 264 270 273 274 275 282 284 282 281 283 280 278 282 284 284 284 291 296 293 292 293 289 286 285
190 186 192 191 192 186 191 183 187 214 223 260 273 280 273 271 269 266 263 263 268 266 263 267 273 276 277 280 280 278 275 273 288 291 291 290 286 286 290 295 292 287 283
167 177 179 178 184 188 191 207 227 225 245 260 280 284 277 271 270 269 272 277 273 275 272 266 261 268 277 278 277 284 289 288 287 288 288 290 296 300 296 296 295 286 278
147 155 177 190 193 198 224 221 226 243 257 270 289 277 279 280 275 270 263 264 263 270 271 274 277 276 275 277 279 281 284 287 287 287 293 295 297 295 297 297 300 301 295
138 150 157 170 189 215 223 249 271 273 276 280 276 283 283 281 283 280 276 265 263 262 255 257 267 269 275 277 280 278 276 278 279 289 295 286 293 294 301 301 305 303 299
134 144 160 188 221 246 260 275 283 282 278 277 280 283 283 284 283 283 283 281 265 257 250 253 250 256 265 269 263 263 270 275 278 278 279 281 296 298 301 306 305 303 299
134 140 182 209 264 278 285 278 278 286 285 288 288 286 285 286 286 287 289 289 277 271 266 257 253 251 252 256 254 252 261 270 271 275 280 286 294 296 300 305 301 303 310
172 175 198 237 272 285 297 305 301 298 298 298 296 292 290 289 289 285 273 276 280 278 275 271 257 252 250 256 255 250 256 254 263 275 279 291 300 306 302 303 305 313 310